Location: Coupvray
(48.8929°N, 2.7967°E)
Time: 21:10:35
(UTC+00:00)

SeaSat 1 - Pass Details

Date: 14 July 2020
Orbit: 744 x 748 km, 108.0° (Epoch: 14 August)

Event Time Altitude Azimuth Distance (km) Brightness Sun altitude
Rises 02:13:43 0° 28° (NNE) 3,202 7.8 -13.0°
Reaches altitude 10° 02:15:59 10° 27° (NNE) 2,274 6.4 -12.8°
Maximum altitude 02:20:56 79° 303° (WNW) 767 2.5 -12.3°
Enters shadow 02:24:48 17° 217° (SW) 1,842 3.8 -12.0°
